DW0275 Weather Reports


time (UTC)temp
C
wind
direction
speed
KPH
gust
KPH
rain 1hr
cm
rain 24hr
cm
rain mn
cm
humidity
%
barometer
mb
20260831034546 25 49 0.0 0.0 0.00 0.23 0.23 93 1017.7
20260831034327 25 49 0.0 0.0 0.00 0.23 0.23 93 1017.8
20260831033822 25 50 0.0 0.0 0.00 0.23 0.23 93 1017.9
20260831033319 25 50 0.0 0.0 0.00 0.23 0.23 93 1017.9
20260831033033 25 50 0.0 0.0 0.00 0.23 0.23 93 1017.7
20260831032836 25 50 0.0 0.0 0.00 0.23 0.23 93 1017.8
20260831032353 25 50 0.0 0.0 0.00 0.23 0.23 93 1017.8
20260831031830 25 50 0.0 0.0 0.00 0.23 0.23 93 1017.8
20260831031553 25 50 0.0 0.0 0.00 0.23 0.23 93 1017.7
20260831031328 25 50 0.0 0.0 0.00 0.23 0.23 93 1017.8
20260831030824 25 50 0.0 0.0 0.00 0.23 0.23 93 1017.8
20260831030320 25 351 0.0 0.0 0.00 0.23 0.23 93 1017.8
20260831030035 25 350 0.0 0.0 0.00 0.23 0.23 93 1017.7
20260831025837 25 351 0.0 0.0 0.00 0.23 0.23 93 1017.9
20260831025329 25 350 0.0 0.0 0.00 0.23 0.23 93 1018.0
20260831024846 25 2 0.0 0.0 0.00 0.23 0.23 93 1017.8
20260831024600 25 2 0.0 0.0 0.00 0.23 0.23 93 1017.7
20260831024322 25 2 0.0 0.0 0.00 0.23 0.23 93 1017.8
20260831023839 25 2 0.0 0.0 0.00 0.23 0.23 93 1017.7
20260831023356 25 2 0.0 0.0 0.00 0.23 0.23 93 1017.6
20260831023053 25 2 0.0 0.0 0.00 0.23 0.23 93 1017.5
20260831022831 25 2 0.0 0.0 0.00 0.23 0.23 93 1017.7
20260831022326 25 2 0.0 0.0 0.00 0.23 0.23 93 1017.5
20260831021845 25 2 0.0 0.0 0.00 0.23 0.23 93 1017.5
20260831021545 25 2 0.0 0.0 0.00 0.23 0.23 93 1017.4
20260831021341 25 2 0.0 0.0 0.00 0.23 0.23 93 1017.6
20260831020817 25 2 0.0 0.0 0.00 0.23 0.23 92 1017.6
20260831020334 25 2 0.0 0.0 0.00 0.23 0.23 92 1017.7
20260831020009 25 2 0.0 1.6 0.00 0.23 0.23 92 1017.6
20260831015851 25 2 0.0 1.6 0.00 0.23 0.23 92 1017.7
20260831015328 25 41 0.0 0.0 0.00 0.23 0.23 92 1017.8
20260831014822 25 41 0.0 0.0 0.00 0.23 0.23 92 1017.8
20260831014518 25 41 0.0 0.0 0.00 0.23 0.23 92 1017.8
20260831014339 25 41 0.0 0.0 0.00 0.23 0.23 92 1017.9
20260831013855 25 41 0.0 0.0 0.00 0.23 0.23 92 1017.9
20260831013351 25 41 0.0 0.0 0.00 0.23 0.23 92 1017.9
20260831013007 25 41 0.0 0.0 0.00 0.23 0.23 92 1017.7
20260831012827 25 41 0.0 0.0 0.00 0.23 0.23 92 1017.8
20260831012324 25 41 0.0 1.6 0.03 0.23 0.23 92 1017.7
20260831011838 25 41 0.0 1.6 0.03 0.23 0.23 92 1017.8
20260831011530 25 41 0.0 1.6 0.05 0.23 0.23 92 1017.7
20260831011332 25 46 0.0 0.0 0.05 0.23 0.23 92 1017.7
20260831010830 25 57 0.0 0.0 0.05 0.23 0.23 92 1017.7
20260831010327 25 57 0.0 0.0 0.08 0.23 0.23 91 1017.8
20260831010020 25 56 0.0 1.6 0.08 0.23 0.23 91 1017.6
20260831005823 25 56 0.0 1.6 0.10 0.23 0.23 91 1017.7
20260831005318 25 56 0.0 1.6 0.13 0.23 0.23 91 1017.6
20260831004836 25 57 0.0 0.0 0.13 0.23 0.23 91 1017.6
20260831004559 24 57 0.0 0.0 0.13 0.23 0.23 91 1017.5
20260831004505 24 57 0.0 0.0 0.13 0.23 0.23 91 1017.5
20260831004353 25 57 0.0 0.0 0.13 0.23 0.23 91 1017.6
20260831003829 25 56 0.0 4.8 0.15 0.23 0.23 91 1017.6
20260831003327 25 111 0.0 4.8 0.18 0.23 0.23 91 1017.6
20260831003024 25 136 0.0 4.8 0.18 0.23 0.23 91 1017.6
20260831002824 25 152 0.0 4.8 0.20 0.23 0.23 91 1017.7
20260831002321 25 56 0.0 4.8 0.18 0.20 0.20 91 1017.7
20260831001838 25 68 1.6 8.0 0.18 0.20 0.20 91 1017.7
20260831001544 25 136 3.2 8.0 0.15 0.18 0.18 91 1017.6
20260831001315 25 58 1.6 4.8 0.15 0.18 0.18 91 1017.6
20260831000832 25 143 0.0 4.8 0.15 0.18 0.18 91 1017.6
20260831000332 25 135 1.6 8.0 0.13 0.15 0.15 91 1017.4
20260831000027 25 79 1.6 8.0 0.13 0.15 0.15 91 1017.2
20260830235826 25 53 1.6 8.0 0.10 0.13 0.13 91 1017.3
20260830235323 25 57 3.2 11.3 0.08 0.10 0.10 91 1017.3
20260830234820 25 117 4.8 14.5 0.08 0.10 0.10 91 1017.3
20260830234514 25 134 1.6 14.5 0.08 0.10 0.10 91 1017.1
20260830234318 25 43 3.2 14.5 0.08 0.10 0.10 91 1017.2
20260830233816 25 49 3.2 11.3 0.05 0.08 0.08 90 1017.2
20260830233333 25 65 3.2 11.3 0.03 0.05 0.05 90 1017.3
20260830233057 25 126 4.8 11.3 0.03 0.05 0.05 90 1017.4
20260830232832 26 102 3.2 11.3 0.00 0.03 0.03 90 1017.5
20260830232329 26 53 3.2 4.8 0.00 0.03 0.03 90 1017.4
20260830231828 26 129 0.0 8.0 0.00 0.03 0.03 89 1017.3
20260830231547 25 143 1.6 11.3 0.00 0.03 0.03 88 1017.1
20260830230827 26 117 6.4 9.7 0.00 0.03 0.03 87 1017.5
20260830230324 26 155 4.8 9.7 0.00 0.03 0.03 86 1017.5
20260830230036 26 147 1.6 12.9 0.00 0.03 0.03 86 1017.3
20260830225823 27 168 3.2 12.9 0.00 0.03 0.03 86 1017.3
20260830225322 27 152 4.8 12.9 0.00 0.03 0.03 86 1017.4
20260830224820 27 356 0.0 0.0 0.00 0.03 0.03 85 1017.1
20260830224518 27 356 0.0 0.0 0.00 0.03 0.03 85 1017.0
20260830224318 27 356 0.0 0.0 0.00 0.03 0.03 85 1017.1
20260830223836 27 45 0.0 0.0 0.00 0.03 0.03 85 1017.3
20260830223333 27 45 0.0 0.0 0.00 0.03 0.03 85 1017.4
20260830223047 27 45 0.0 1.6 0.00 0.03 0.03 85 1017.3
20260830222829 27 45 0.0 3.2 0.00 0.03 0.03 85 1017.2
20260830222328 27 285 0.0 6.4 0.00 0.03 0.03 84 1017.0
20260830221826 27 37 1.6 6.4 0.00 0.03 0.03 84 1017.2
20260830221545 27 30 0.0 0.0 0.00 0.03 0.03 84 1017.0
20260830221324 27 329 0.0 0.0 0.00 0.03 0.03 84 1017.0
20260830220821 27 31 0.0 1.6 0.00 0.03 0.03 84 1016.8
20260830220340 27 31 0.0 1.6 0.00 0.03 0.03 84 1016.8
20260830220004 27 31 0.0 4.8 0.00 0.03 0.03 84 1016.8
20260830215815 27 314 0.0 4.8 0.00 0.03 0.03 84 1016.9
20260830215332 27 44 1.6 4.8 0.00 0.03 0.03 84 1017.0
20260830214829 27 263 0.0 3.2 0.00 0.03 0.03 84 1017.0
20260830214550 27 262 0.0 4.8 0.00 0.03 0.03 84 1016.9
20260830214327 27 288 0.0 4.8 0.00 0.03 0.03 84 1017.1
20260830213845 27 23 0.0 9.7 0.00 0.03 0.03 83 1017.0
20260830213320 27 286 0.0 9.7 0.00 0.03 0.03 83 1017.0
20260830213017 27 335 1.6 6.4 0.00 0.03 0.03 83 1016.9
20260830212817 28 318 0.0 8.0 0.00 0.03 0.03 83 1017.1
20260830212334 28 316 0.0 8.0 0.00 0.03 0.03 82 1017.1
20260830211832 28 82 1.6 4.8 0.00 0.03 0.03 82 1017.1
20260830211558 28 144 0.0 6.4 0.00 0.03 0.03 82 1017.1
20260830211328 29 295 0.0 6.4 0.00 0.03 0.03 81 1017.1
20260830210825 30 345 0.0 6.4 0.00 0.03 0.03 81 1017.0
20260830210322 30 139 1.6 8.0 0.00 0.03 0.03 81 1016.7
20260830210043 30 38 0.0 9.7 0.00 0.03 0.03 80 1016.6
20260830205837 30 135 3.2 9.7 0.00 0.03 0.03 81 1016.7
20260830205353 30 113 4.8 9.7 0.00 0.03 0.03 80 1016.7
20260830204830 30 63 3.2 9.7 0.00 0.03 0.03 80 1016.8
20260830204509 30 149 1.6 12.9 0.00 0.03 0.03 79 1016.6
20260830204328 30 134 1.6 16.1 0.00 0.03 0.03 79 1016.6
20260830203823 31 134 6.4 16.1 0.00 0.03 0.03 78 1016.6
20260830203320 31 124 8.0 14.5 0.00 0.03 0.03 78 1016.5
20260830203116 30 134 6.4 11.3 0.00 0.03 0.03 78 1016.5
20260830202819 31 107 4.8 9.7 0.00 0.03 0.03 78 1016.6
20260830202316 31 147 4.8 9.7 0.00 0.03 0.03 78 1016.6
20260830201834 31 130 4.8 12.9 0.00 0.03 0.03 78 1016.4
20260830201546 31 143 4.8 17.7 0.00 0.03 0.03 77 1016.2
20260830201331 31 120 8.0 17.7 0.00 0.03 0.03 77 1016.3
20260830200828 31 121 9.7 16.1 0.00 0.03 0.03 77 1016.2
20260830200325 31 111 6.4 12.9 0.00 0.03 0.03 78 1016.4
20260830200026 31 139 4.8 12.9 0.00 0.08 0.03 78 1016.4
20260830195822 31 97 6.4 12.9 0.00 0.08 0.03 79 1016.5
20260830195319 31 268 6.4 12.9 0.00 0.08 0.03 79 1016.7
20260830194814 31 139 8.0 12.9 0.00 0.08 0.03 79 1016.7
20260830194508 31 105 4.8 11.3 0.00 0.08 0.03 79 1016.7
20260830194332 31 131 4.8 11.3 0.00 0.08 0.03 79 1016.8
20260830193829 31 78 3.2 9.7 0.00 0.08 0.03 80 1016.7
20260830193345 31 123 4.8 11.3 0.00 0.08 0.03 79 1016.6
20260830193029 31 121 4.8 12.9 0.00 0.08 0.03 78 1016.6
20260830192820 32 104 3.2 12.9 0.00 0.08 0.03 78 1016.8
20260830192334 32 136 3.2 12.9 0.00 0.08 0.03 79 1016.8
20260830191830 31 137 4.8 11.3 0.00 0.08 0.03 78 1016.8
20260830191525 31 108 6.4 14.5 0.00 0.08 0.03 79 1016.7
20260830191350 31 105 4.8 14.5 0.00 0.08 0.03 79 1016.9
20260830190826 32 123 6.4 12.9 0.00 0.08 0.03 79 1017.0
20260830190341 32 53 6.4 12.9 0.00 0.08 0.03 80 1017.1
20260830190031 31 48 6.4 12.9 0.00 0.23 0.03 79 1017.1
20260830185816 32 158 4.8 12.9 0.00 0.23 0.03 80 1017.1
20260830185332 31 122 3.2 12.9 0.00 0.23 0.03 80 1017.3
20260830184830 31 136 4.8 16.1 0.00 0.23 0.03 81 1017.4
20260830184543 30 77 6.4 17.7 0.00 0.23 0.03 80 1017.3
20260830184326 31 70 0.0 17.7 0.00 0.23 0.03 81 1017.4
20260830183823 31 36 3.2 11.3 0.00 0.23 0.03 80 1017.3
20260830183318 31 130 4.8 11.3 0.00 0.23 0.03 79 1017.4
20260830183006 31 72 3.2 11.3 0.00 0.23 0.03 80 1017.3
20260830182815 31 117 4.8 11.3 0.00 0.23 0.03 80 1017.4
20260830182332 31 38 4.8 11.3 0.00 0.23 0.03 80 1017.4
20260830181828 31 238 4.8 11.3 0.00 0.23 0.03 80 1017.6
20260830181557 31 37 4.8 11.3 0.00 0.23 0.03 80 1017.4
20260830181324 31 135 6.4 11.3 0.00 0.23 0.03 80 1017.5
20260830180330 31 50 6.4 14.5 0.00 0.23 0.03 80 1017.6
20260830180044 30 60 3.2 11.3 0.00 0.30 0.03 80 1017.6
20260830175848 31 132 4.8 12.9 0.00 0.30 0.03 80 1017.7
20260830175323 31 153 6.4 12.9 0.00 0.30 0.03 80 1017.8
20260830174841 31 60 4.8 11.3 0.00 0.30 0.03 80 1017.7
20260830174551 31 67 3.2 9.7 0.00 0.30 0.03 81 1017.5
20260830174316 31 137 1.6 9.7 0.00 0.30 0.03 81 1017.7
20260830173833 31 166 4.8 12.9 0.00 0.30 0.03 81 1017.7
20260830173328 31 162 6.4 12.9 0.00 0.30 0.03 82 1017.7
20260830173036 30 129 3.2 12.9 0.00 0.30 0.03 81 1017.6
20260830172845 31 143 1.6 8.0 0.00 0.30 0.03 82 1017.8
20260830172341 30 49 1.6 9.7 0.00 0.30 0.03 82 1017.9
20260830171818 30 34 3.2 14.5 0.00 0.30 0.03 82 1018.0
20260830171541 30 136 1.6 14.5 0.00 0.30 0.03 82 1017.9
20260830171316 30 159 6.4 14.5 0.00 0.30 0.03 82 1018.1
20260830170832 30 46 6.4 12.9 0.00 0.30 0.03 82 1018.3
20260830170330 30 125 6.4 12.9 0.00 0.30 0.03 82 1018.3
20260830170022 30 117 4.8 11.3 0.00 0.30 0.03 82 1018.2
20260830165828 30 148 4.8 11.3 0.00 0.30 0.03 82 1018.4
20260830165324 29 161 4.8 12.9 0.00 0.30 0.03 83 1018.3
20260830164842 29 138 3.2 11.3 0.00 0.30 0.03 83 1018.3
20260830164605 28 116 0.0 4.8 0.00 0.30 0.03 84 1018.2
20260830164318 28 51 3.2 8.0 0.00 0.30 0.03 84 1018.3
20260830163816 28 103 1.6 8.0 0.00 0.30 0.03 84 1018.4
20260830163334 28 14 0.0 0.0 0.00 0.30 0.03 84 1018.4
20260830163028 27 34 0.0 0.0 0.00 0.30 0.03 85 1018.3
20260830162851 27 30 0.0 0.0 0.00 0.30 0.03 85 1018.5
20260830162326 27 41 0.0 0.0 0.00 0.30 0.03 85 1018.6
20260830161821 26 41 0.0 0.0 0.03 0.30 0.03 86 1018.7
20260830161543 26 43 0.0 0.0 0.03 0.30 0.03 86 1018.7
20260830161338 26 97 0.0 0.0 0.03 0.30 0.03 87 1018.8
20260830160815 26 129 0.0 0.0 0.03 0.30 0.03 87 1019.0
20260830160331 26 134 0.0 4.8 0.03 0.30 0.03 87 1019.0
20260830160014 25 63 0.0 4.8 0.03 0.38 0.03 87 1018.9
20260830155826 26 108 0.0 4.8 0.03 0.38 0.03 87 1019.0
20260830155322 25 144 1.6 4.8 0.03 0.38 0.03 87 1019.2
20260830154820 25 108 1.6 4.8 0.03 0.38 0.03 87 1019.4
20260830154555 25 70 0.0 0.0 0.03 0.38 0.03 87 1019.4
20260830154317 25 125 0.0 0.0 0.03 0.38 0.03 86 1019.4
20260830153815 25 63 0.0 0.0 0.03 0.38 0.03 86 1019.6
20260830153328 25 122 0.0 4.8 0.03 0.38 0.03 86 1019.9
20260830153037 25 127 0.0 4.8 0.03 0.38 0.03 86 1019.9
20260830152846 25 96 1.6 6.4 0.03 0.38 0.03 86 1020.2
20260830152320 25 105 3.2 6.4 0.03 0.38 0.03 85 1020.3
20260830151815 26 48 0.0 6.4 0.00 0.36 0.00 85 1020.2
20260830151504 25 39 3.2 6.4 0.00 0.36 0.00 85 1020.0
20260830151333 26 47 4.8 6.4 0.00 0.36 0.00 85 1020.0
20260830150830 26 30 0.0 1.6 0.00 0.36 0.00 85 1019.8
20260830150326 26 32 0.0 0.0 0.00 0.36 0.00 85 1019.8
20260830150048 26 44 0.0 1.6 0.00 0.36 0.00 84 1019.7
20260830145823 26 44 0.0 4.8 0.00 0.36 0.00 83 1019.6
20260830145319 26 46 0.0 8.0 0.00 0.36 0.00 82 1019.8
20260830144556 26 127 1.6 8.0 0.00 0.36 0.00 82 1020.1
20260830144329 26 129 1.6 8.0 0.00 0.36 0.00 82 1020.3
20260830143825 27 43 3.2 9.7 0.00 0.36 0.00 82 1019.8
20260830143321 27 41 3.2 11.3 0.00 0.36 0.00 82 1019.4
20260830143036 26 44 0.0 14.5 0.00 0.36 0.00 82 1019.1
20260830142818 27 53 3.2 14.5 0.00 0.36 0.00 82 1019.3
20260830142316 27 142 6.4 16.1 0.00 0.36 0.00 82 1019.5
20260830141832 27 95 6.4 17.7 0.00 0.36 0.00 82 1019.5
20260830141515 28 57 8.0 17.7 0.00 0.36 0.00 82 1019.4
20260830141330 28 148 9.7 17.7 0.00 0.36 0.00 83 1019.3
20260830140825 29 154 3.2 9.7 0.00 0.36 0.00 85 1018.8
20260830140321 29 105 1.6 6.4 0.00 0.36 0.00 85 1018.6
20260830140002 28 134 3.2 6.4 0.00 0.36 0.00 85 1018.6
20260830135817 29 124 4.8 6.4 0.00 0.36 0.00 84 1018.7
20260830135333 29 125 0.0 0.0 0.00 0.36 0.00 84 1018.6
20260830134831 29 116 0.0 4.8 0.00 0.36 0.00 84 1018.8
20260830134548 28 121 0.0 6.4 0.00 0.36 0.00 84 1018.6
20260830134328 29 119 3.2 6.4 0.00 0.36 0.00 84 1018.5
20260830133844 29 128 3.2 8.0 0.00 0.36 0.00 83 1018.2
20260830133319 29 122 1.6 9.7 0.00 0.36 0.00 84 1018.2
20260830133131 29 153 4.8 9.7 0.00 0.36 0.00 84 1018.1
20260830132816 29 104 3.2 9.7 0.00 0.36 0.00 84 1018.2
20260830132334 30 116 3.2 9.7 0.00 0.36 0.00 83 1018.2
20260830131830 30 131 4.8 9.7 0.00 0.36 0.00 83 1018.2
20260830131532 29 104 3.2 11.3 0.00 0.36 0.00 83 1018.0
20260830131327 30 162 4.8 11.3 0.00 0.36 0.00 83 1018.0
20260830130845 30 123 4.8 11.3 0.00 0.36 0.00 83 1018.3
20260830130323 30 108 1.6 8.0 0.00 0.36 0.00 82 1018.3
20260830130056 30 135 3.2 8.0 0.00 0.36 0.00 82 1018.1
20260830125820 30 122 3.2 8.0 0.00 0.36 0.00 82 1018.2
20260830125318 30 113 3.2 6.4 0.00 0.36 0.00 82 1018.4
20260830124816 31 123 1.6 3.2 0.00 0.36 0.00 82 1018.3
20260830124549 30 134 0.0 3.2 0.00 0.36 0.00 82 1018.2
20260830124334 31 134 1.6 3.2 0.00 0.36 0.00 82 1018.3
20260830123832 31 117 0.0 3.2 0.00 0.36 0.00 82 1018.4
20260830123329 30 122 0.0 0.0 0.00 0.36 0.00 83 1018.3
20260830123022 30 122 0.0 0.0 0.00 0.36 0.00 84 1018.1
20260830122827 30 123 0.0 0.0 0.00 0.36 0.00 85 1018.2
20260830122324 29 122 0.0 0.0 0.00 0.36 0.00 87 1018.1
20260830121822 28 123 0.0 0.0 0.00 0.36 0.00 87 1018.1
20260830121508 28 122 0.0 0.0 0.00 0.36 0.00 87 1018.0
20260830121319 28 122 0.0 0.0 0.00 0.36 0.00 88 1018.1
20260830120815 28 123 0.0 0.0 0.00 0.36 0.00 88 1018.1
20260830120329 28 122 0.0 0.0 0.00 0.36 0.00 89 1018.1
20260830120054 27 122 0.0 0.0 0.00 0.36 0.00 89 1018.0
20260830115825 28 123 0.0 0.0 0.00 0.36 0.00 89 1018.0
20260830115321 27 122 0.0 1.6 0.00 0.36 0.00 90 1018.0
20260830114838 27 122 0.0 1.6 0.00 0.36 0.00 90 1017.9
20260830114519 27 122 0.0 0.0 0.00 0.36 0.00 91 1017.7
20260830114314 27 122 0.0 0.0 0.00 0.36 0.00 91 1017.8
20260830113833 26 122 0.0 0.0 0.00 0.36 0.00 91 1017.7
20260830113330 26 122 0.0 0.0 0.00 0.36 0.00 91 1017.6
20260830113007 26 123 0.0 0.0 0.00 0.36 0.00 91 1017.5
20260830112826 26 122 0.0 0.0 0.00 0.36 0.00 91 1017.5
20260830112325 26 122 0.0 0.0 0.00 0.36 0.00 91 1017.4
20260830111822 26 122 0.0 0.0 0.00 0.36 0.00 91 1017.4
20260830111547 26 122 0.0 0.0 0.00 0.36 0.00 91 1017.2
20260830111319 26 122 0.0 0.0 0.00 0.36 0.00 90 1017.1
20260830110816 26 122 0.0 0.0 0.00 0.36 0.00 90 1017.1
20260830110336 26 123 0.0 0.0 0.00 0.36 0.00 90 1017.0
20260830110033 26 122 0.0 0.0 0.00 0.36 0.00 90 1016.8
20260830105854 26 122 0.0 0.0 0.00 0.36 0.00 90 1016.8
20260830105329 26 123 0.0 0.0 0.00 0.36 0.00 90 1016.7
20260830104828 26 122 0.0 0.0 0.00 0.36 0.00 90 1016.7
20260830104503 26 122 0.0 0.0 0.00 0.36 0.00 90 1016.6
20260830104324 26 122 0.0 0.0 0.00 0.36 0.00 90 1016.6
20260830103823 26 123 0.0 0.0 0.00 0.36 0.00 89 1016.5
20260830103319 26 123 0.0 0.0 0.00 0.36 0.00 89 1016.4
20260830103049 26 122 0.0 0.0 0.00 0.36 0.00 89 1016.2
20260830102817 27 122 0.0 0.0 0.00 0.36 0.00 89 1016.4
20260830102315 27 122 0.0 0.0 0.00 0.36 0.00 89 1016.4
20260830101833 27 122 0.0 0.0 0.00 0.36 0.00 88 1016.3
20260830101537 26 123 0.0 0.0 0.00 0.36 0.00 88 1016.2
20260830101331 27 123 0.0 0.0 0.00 0.36 0.00 88 1016.3
20260830100827 27 122 0.0 1.6 0.00 0.36 0.00 88 1016.2
20260830100323 27 122 0.0 1.6 0.00 0.36 0.00 88 1016.1
20260830100020 27 122 0.0 1.6 0.00 0.36 0.00 88 1016.0
20260830095841 27 122 0.0 1.6 0.00 0.36 0.00 88 1016.1
20260830095338 27 123 0.0 3.2 0.00 0.36 0.00 88 1016.1
20260830094854 27 118 1.6 4.8 0.00 0.36 0.00 87 1016.1
20260830094517 27 140 0.0 4.8 0.00 0.36 0.00 87 1016.0
20260830094331 27 122 1.6 4.8 0.00 0.36 0.00 87 1016.1
20260830093827 27 129 1.6 6.4 0.00 0.36 0.00 87 1015.9
20260830093324 27 139 3.2 6.4 0.00 0.36 0.00 87 1016.0
20260830093059 27 106 1.6 4.8 0.00 0.36 0.00 87 1015.9
20260830093001 27 131 1.6 4.8 0.00 0.36 0.00 87 1015.9
20260830092821 27 127 1.6 4.8 0.00 0.36 0.00 87 1015.9
20260830092317 27 111 1.6 4.8 0.00 0.36 0.00 87 1016.0
20260830091815 27 89 1.6 4.8 0.00 0.36 0.00 87 1015.9
20260830091547 27 133 1.6 6.4 0.00 0.36 0.00 87 1015.8
20260830091331 27 120 3.2 6.4 0.00 0.36 0.00 87 1016.0
20260830090827 27 146 3.2 6.4 0.00 0.36 0.00 87 1016.0
20260830090325 27 120 1.6 4.8 0.00 0.36 0.00 87 1016.0
20260830090045 27 110 1.6 4.8 0.00 0.36 0.00 87 1016.0
20260830085822 27 136 1.6 4.8 0.00 0.36 0.00 87 1016.1
20260830085338 27 127 0.0 4.8 0.00 0.36 0.00 87 1016.1
20260830084833 27 117 0.0 6.4 0.00 0.36 0.00 87 1016.2
20260830084505 27 149 1.6 6.4 0.00 0.36 0.00 87 1016.1
20260830084330 27 125 3.2 6.4 0.00 0.36 0.00 87 1016.2
20260830083847 27 127 0.0 3.2 0.00 0.36 0.00 87 1016.1
20260830083339 27 124 0.0 6.4 0.00 0.36 0.00 87 1016.2
20260830083110 27 108 0.0 6.4 0.00 0.36 0.00 87 1016.1
20260830083001 27 128 0.0 6.4 0.00 0.36 0.00 87 1016.1
20260830082814 27 121 1.6 6.4 0.00 0.36 0.00 87 1016.2
20260830082331 27 139 0.0 6.4 0.00 0.36 0.00 87 1016.1
20260830081827 27 117 3.2 6.4 0.00 0.36 0.00 88 1016.2
20260830081545 27 118 3.2 8.0 0.00 0.36 0.00 88 1016.1
20260830081346 27 84 1.6 8.0 0.00 0.36 0.00 88 1016.3
20260830080823 27 138 3.2 8.0 0.00 0.36 0.00 88 1016.4
20260830080320 27 133 3.2 6.4 0.00 0.36 0.00 88 1016.4
20260830080007 27 136 1.6 6.4 0.00 0.36 0.00 88 1016.4
20260830075818 27 139 3.2 6.4 0.00 0.36 0.00 88 1016.5
20260830075332 27 117 3.2 6.4 0.00 0.36 0.00 88 1016.6
20260830074829 27 131 1.6 4.8 0.00 0.36 0.00 87 1016.7
20260830074551 27 97 1.6 4.8 0.00 0.36 0.00 87 1016.6
20260830074326 27 139 1.6 6.4 0.00 0.36 0.00 87 1016.7
20260830073823 27 134 3.2 6.4 0.00 0.36 0.00 87 1016.8
20260830073321 27 129 1.6 4.8 0.00 0.36 0.00 87 1016.8
20260830073036 27 131 1.6 6.4 0.00 0.36 0.00 87 1016.7
20260830072816 27 136 1.6 6.4 0.00 0.36 0.00 87 1016.8
20260830072332 27 134 3.2 9.7 0.00 0.36 0.00 87 1016.8
20260830071829 27 115 3.2 9.7 0.00 0.36 0.00 87 1016.7
20260830071519 27 148 0.0 9.7 0.00 0.36 0.00 87 1016.8
20260830071322 27 134 1.6 9.7 0.00 0.36 0.00 87 1016.9
20260830070818 27 131 1.6 9.7 0.00 0.36 0.00 87 1016.8
20260830070317 27 148 4.8 8.0 0.00 0.36 0.00 87 1016.9
20260830070109 27 117 1.6 8.0 0.00 0.36 0.00 87 1016.8
20260830070003 27 69 1.6 9.7 0.00 0.36 0.00 87 1016.8
20260830065835 27 61 3.2 9.7 0.00 0.36 0.00 87 1016.9
20260830065331 27 147 3.2 9.7 0.00 0.36 0.00 87 1017.0
20260830064828 27 65 3.2 9.7 0.00 0.36 0.00 87 1017.0
20260830064526 27 141 3.2 9.7 0.00 0.36 0.00 87 1016.8
20260830064326 27 143 4.8 9.7 0.00 0.36 0.00 87 1016.9
20260830063842 27 123 3.2 9.7 0.00 0.36 0.00 87 1017.0
20260830063339 27 140 3.2 9.7 0.00 0.36 0.00 88 1017.1
20260830063021 27 92 1.6 6.4 0.00 0.36 0.00 88 1016.9
20260830062816 27 146 3.2 6.4 0.00 0.36 0.00 88 1017.0
20260830062333 27 113 1.6 9.7 0.00 0.36 0.00 88 1017.2
20260830061850 27 113 4.8 9.7 0.00 0.36 0.00 88 1017.3
20260830061559 27 166 1.6 9.7 0.00 0.36 0.00 88 1017.2
20260830061325 27 140 3.2 9.7 0.00 0.36 0.00 88 1017.2
20260830060821 27 131 3.2 9.7 0.00 0.36 0.00 88 1017.3
20260830060318 27 139 1.6 11.3 0.00 0.36 0.00 88 1017.5
20260830060035 27 84 4.8 11.3 0.00 0.36 0.00 88 1017.4
20260830055835 27 111 3.2 11.3 0.00 0.36 0.00 88 1017.6
20260830055352 27 133 3.2 9.7 0.00 0.36 0.00 88 1017.7
20260830054822 27 118 4.8 9.7 0.00 0.36 0.00 88 1017.8
20260830054526 27 122 3.2 8.0 0.00 0.36 0.00 88 1017.8
20260830054319 27 32 4.8 8.0 0.00 0.36 0.00 88 1017.8
20260830053817 27 47 3.2 8.0 0.00 0.36 0.00 88 1017.8
20260830053333 27 154 3.2 8.0 0.00 0.36 0.00 88 1017.7
20260830053012 27 53 1.6 11.3 0.00 0.36 0.00 88 1017.7
20260830052849 27 28 3.2 11.3 0.00 0.36 0.00 88 1017.8
20260830052324 27 61 4.8 11.3 0.00 0.36 0.00 88 1018.1
20260830051821 27 63 3.2 9.7 0.00 0.36 0.00 88 1018.1
20260830051530 27 150 3.2 9.7 0.00 0.36 0.00 88 1018.1
20260830051339 27 80 3.2 8.0 0.00 0.36 0.00 88 1018.3
20260830050836 27 53 3.2 12.9 0.00 0.36 0.00 89 1018.3
20260830050331 27 55 4.8 12.9 0.00 0.36 0.00 89 1018.1
20260830050027 27 131 4.8 11.3 0.00 0.36 0.00 89 1017.9
20260830045828 27 49 3.2 11.3 0.00 0.36 0.00 89 1018.1
20260830045326 27 29 3.2 9.7 0.00 0.36 0.00 89 1018.1
20260830044823 27 60 3.2 9.7 0.00 0.36 0.00 89 1018.1
20260830044513 27 54 1.6 9.7 0.00 0.36 0.00 89 1017.9
20260830044322 27 69 1.6 9.7 0.00 0.36 0.00 89 1018.0
20260830043819 26 45 1.6 6.4 0.00 0.36 0.00 89 1018.0
20260830043011 26 62 0.0 1.6 0.00 0.36 0.00 89 1018.1
20260830042850 26 67 0.0 1.6 0.00 0.36 0.00 89 1018.1
20260830042325 26 132 0.0 1.6 0.00 0.36 0.00 90 1018.1
20260830041822 26 110 0.0 0.0 0.00 0.36 0.00 90 1018.3
20260830041512 25 109 0.0 0.0 0.00 0.36 0.00 90 1018.2
20260830041339 26 109 0.0 0.0 0.00 0.36 0.00 90 1018.4
20260830040815 26 110 0.0 0.0 0.00 0.36 0.00 90 1018.5
20260830040334 26 61 0.0 0.0 0.00 0.36 0.00 90 1018.4
20260830040029 25 61 0.0 0.0 0.00 0.36 0.00 90 1018.3
20260830035822 26 54 0.0 0.0 0.00 0.36 0.36 90 1018.4
20260830035335 26 36 0.0 0.0 0.00 0.36 0.36 90 1018.4
20260830034832 26 36 0.0 0.0 0.00 0.36 0.36 91 1018.5